Location: Namasale
(1.5000°N, 32.6167°E)
Time: 19:03:31
(UTC+00:00)

Courier 1B - Pass Details

Date: 26 April 2021
Orbit: 962 x 1209 km, 28.3° (Epoch: 10 May)

Event Time Altitude Azimuth Distance (km) Brightness Sun altitude
Rises 04:23:21 0° 243° (WSW) 4,102 10.1 9.1°
Reaches altitude 10° 04:26:15 10° 245° (WSW) 3,124 9.6 9.8°
Maximum altitude 04:34:02 76° 330° (NNW) 1,195 8.2 11.7°
Drops below altitude 10° 04:41:26 10° 55° (NE) 2,976 11.6 13.5°
Sets 04:44:08 0° 56° (ENE) 3,897 12.1 14.1°
